Lake Pepin Weather Center

Moon Phase Calendar



Lake Pepin Water Level
Online Cameras

 


      

Current Conditions in Lake City
1/20/2022 2:11:43 AM

-4°F
Feels Like -11
Clear
Humidity
67%
Pressure
30.65"
Wind
3 mph (WNW)
Dew Point
-11°F
UV Index
0/10 (Low)
Visibility
6 mi

Hourly Forecast

Date & Time Thu, Jan 20
2:00 AM
Thu, Jan 20
3:00 AM
Thu, Jan 20
4:00 AM
Thu, Jan 20
5:00 AM
Thu, Jan 20
6:00 AM
Thu, Jan 20
7:00 AM
Thu, Jan 20
8:00 AM
Thu, Jan 20
9:00 AM
Thu, Jan 20
10:00 AM
Thu, Jan 20
11:00 AM
Thu, Jan 20
12:00 PM
Thu, Jan 20
1:00 PM
Thu, Jan 20
2:00 PM
Thu, Jan 20
3:00 PM
Thu, Jan 20
4:00 PM
Thu, Jan 20
5:00 PM
Thu, Jan 20
6:00 PM
Thu, Jan 20
7:00 PM
Thu, Jan 20
8:00 PM
Thu, Jan 20
9:00 PM
Thu, Jan 20
10:00 PM
Thu, Jan 20
11:00 PM
Fri, Jan 21
12:00 AM
Fri, Jan 21
1:00 AM
Fri, Jan 21
2:00 AM
Fri, Jan 21
3:00 AM
Fri, Jan 21
4:00 AM
Fri, Jan 21
5:00 AM
Fri, Jan 21
6:00 AM
Fri, Jan 21
7:00 AM
Fri, Jan 21
8:00 AM
Fri, Jan 21
9:00 AM
Fri, Jan 21
10:00 AM
Fri, Jan 21
11:00 AM
Fri, Jan 21
12:00 PM
Fri, Jan 21
1:00 PM
Fri, Jan 21
2:00 PM
Fri, Jan 21
3:00 PM
Fri, Jan 21
4:00 PM
Fri, Jan 21
5:00 PM
Fri, Jan 21
6:00 PM
Fri, Jan 21
7:00 PM
Fri, Jan 21
8:00 PM
Fri, Jan 21
9:00 PM
Fri, Jan 21
10:00 PM
Fri, Jan 21
11:00 PM
Sat, Jan 22
12:00 AM
Sat, Jan 22
1:00 AM
Condition
Clear

Clouds

Clouds

Clouds

Clouds

Clear

Clear

Clear

Clear

Clear

Clear

Clear

Clear

Clear

Clear

Clear

Clear

Clear

Clear

Clear

Clear

Clear

Clear

Clear

Clear

Clear

Clear

Clear

Clear

Clear

Clear

Clear

Clear

Clear

Clouds

Clouds

Clouds

Clouds

Clouds

Clouds

Clouds

Clouds

Clouds

Snow

Snow

Snow

Snow

Clouds
Temperature -4°F-4°F-5°F-6°F-7°F-8°F-9°F-7°F-4°F-2°F1°F2°F4°F4°F3°F-1°F-4°F-5°F-6°F-7°F-7°F-7°F-7°F-7°F-6°F-7°F-6°F-6°F-6°F-6°F-5°F-1°F3°F7°F10°F11°F12°F12°F12°F11°F12°F14°F15°F16°F17°F19°F20°F20°F
Feels Like -16°F-17°F-17°F-18°F-19°F-20°F-20°F-19°F-16°F-13°F-11°F-8°F-7°F-6°F-6°F-10°F-12°F-13°F-6°F-7°F-15°F-17°F-17°F-18°F-19°F-18°F-19°F-18°F-18°F-18°F-17°F-13°F-9°F-6°F-3°F-1°F0°F0°F-1°F-1°F-1°F1°F2°F3°F5°F6°F8°F8°F
Cloudiness 0%16%25%31%36%7%7%6%6%6%6%6%6%6%6%6%6%6%6%7%6%6%6%5%5%5%5%5%5%5%5%5%4%5%12%98%99%99%99%100%100%100%100%100%100%100%100%100%
Visibility 6 mi6 mi6 mi6 mi6 mi6 mi6 mi6 mi6 mi6 mi6 mi6 mi6 mi6 mi6 mi6 mi6 mi6 mi6 mi6 mi6 mi6 mi6 mi6 mi6 mi6 mi6 mi6 mi6 mi6 mi6 mi6 mi6 mi6 mi6 mi6 mi6 mi6 mi6 mi6 mi6 mi6 mi4 mi0 mi0 mi0 mi1 mi1 mi
Precipitation 0%0%0%0%0%0%0%0%0%0%0%0%0%0%0%0%0%0%0%0%0%0%0%0%0%0%0%0%0%0%0%0%0%0%0%0%0%0%0%0%0%0%31%70%96%99%99%57%
Humidity 67%73%78%84%89%95%95%89%84%79%76%75%74%74%79%91%95%96%96%96%96%95%95%94%93%93%92%90%90%89%87%80%75%71%69%70%73%73%75%76%77%77%80%92%93%92%89%89%
Dew Point -11°F-10°F-9°F-9°F-9°F-15°F-15°F-14°F-13°F-11°F-9°F-7°F-6°F-6°F-5°F-7°F-10°F-11°F-12°F-13°F-13°F-13°F-13°F-13°F-13°F-13°F-13°F-13°F-13°F-13°F-12°F-10°F-7°F-3°F-1°F2°F3°F3°F3°F3°F4°F6°F8°F12°F14°F16°F16°F17°F
Pressure 30.65"30.68"30.68"30.71"30.74"30.77"30.8"30.8"30.8"30.8"30.77"30.74"30.71"30.71"30.68"30.71"30.71"30.71"30.68"30.68"30.68"30.65"30.65"30.65"30.62"30.62"30.59"30.56"30.56"30.56"30.56"30.53"30.5"30.5"30.45"30.39"30.36"30.36"30.33"30.3"30.3"30.27"30.24"30.21"30.18"30.15"30.15"30.15"
Wind Speed 10.1 mph9.2 mph8 mph7 mph5.9 mph5 mph4.7 mph5.9 mph5.7 mph5.5 mph5.8 mph5.5 mph5.3 mph5 mph4.7 mph3.7 mph3.5 mph3.3 mph2.8 mph2.9 mph3.1 mph4.2 mph4 mph4.4 mph5.7 mph5 mph6 mph6.7 mph6 mph7.2 mph7.8 mph9.9 mph12.8 mph14.4 mph15.6 mph15.8 mph15.8 mph15.6 mph16.1 mph15.3 mph14.8 mph15.9 mph16.8 mph17 mph17.3 mph17.2 mph17.2 mph16.3 mph
Wind
Direction
312°
NW
313°
NW
314°
NW
315°
NW
316°
NW
312°
NW
309°
NW
322°
NW
319°
NW
310°
NW
307°
NW
299°
WNW
298°
WNW
295°
WNW
281°
W
263°
W
256°
WSW
233°
SW
220°
SW
199°
SSW
198°
SSW
190°
S
198°
SSW
181°
S
169°
S
174°
S
167°
SSE
161°
SSE
166°
SSE
157°
SSE
165°
SSE
175°
S
181°
S
186°
S
183°
S
181°
S
179°
S
183°
S
179°
S
185°
S
190°
S
191°
S
200°
SSW
199°
SSW
206°
SSW
211°
SSW
220°
SW
227°
SW

Daily Forecast

Date High Low Precip. Humidity
Today
Jan 20

Clear
4 °F
-9 °F
0%
76%
Friday
Jan 21

Snow
16 °F
-7 °F
70%
69%
Saturday
Jan 22

Snow
22 °F
7 °F
99%
80%
Sunday
Jan 23

Snow
13 °F
2 °F
100%
83%
Monday
Jan 24

Snow
30 °F
3 °F
100%
89%
Tuesday
Jan 25

Clouds
0 °F
-22 °F
0%
88%
Wednesday
Jan 26

Clouds
5 °F
-28 °F
0%
87%
Thursday
Jan 27

Snow
28 °F
3 °F
100%
95%
Friday
Jan 28

Clouds
21 °F
1 °F
7%
91%
Saturday
Jan 29

Snow
23 °F
0 °F
100%
91%
Sunday
Jan 30

Snow
21 °F
5 °F
100%
91%
Monday
Jan 31

Clouds
21 °F
-8 °F
0%
86%
Tuesday
Feb 1

Clouds
29 °F
7 °F
0%
85%
Wednesday
Feb 2

Clouds
36 °F
29 °F
0%
85%
Thursday
Feb 3

Clouds
35 °F
4 °F
8%
84%
Friday
Feb 4

Snow
25 °F
3 °F
100%
96%

Temperature 8-14 Day Outlook



Precipitation 8-14 Day Outlook




Quick Links
Lake Pepin News
Lake Pepin Photos
Lake Pepin Videos




About Us
Contact Us
Site Map
Search Site
Advertise With Us
   
Pepin.LakesOnline.com
THE LAKE PEPIN WEBSITE

Copyright 2022, Lakes Online
Privacy    |    Legal